Back to catalog

PEGASUS DEB

AlivePO
NORAD 25445·DEBRIS·🇺🇸 United States

Launched May 19, 1994 from Vandenberg Space Force Base

Loading…

Next Passes (next 24 hours)

TLE

FreshSource: Space-Track

Epoch: Sep 14, 2026, 08:13 UTC

1 25445U 94029ADZ 26257.34258738  .00001090  00000-0  14725-3 0  9998
2 25445  81.9877  19.5150 0128752  13.0564  15.1884 14.72562618549600

Track PEGASUS DEB in real time with AllMySat

Download on the App Store